Regional Weather Roundup
Issued by NWS Kansas City/Pleasant Hill, MO

Home | Current Version | Previous Version | Text Only | Print | Product List | Glossary On
Versions: 1 2 3 4 5 6 7 8 9 10 11 12 13 14 15 16 17 18 19 20 21 22 23 24 25 26 27 28 29 30 31 32 33 34 35 36 37 38 39 40 41 42 43 44 45 46 47 48 49 50
000
ASUS43 KEAX 222311
RWREAX

WEATHER ROUNDUP FOR EASTERN KANSAS AND NORTHWEST MISSOURI
NATIONAL WEATHER SERVICE KANSAS CITY/PLEASANT HILL MO
600 PM CDT WED OCT 22 2014

KSZ040-057-103>105-MOZ028-029-037-043-230000-
...KANSAS CITY METROPOLITAN AREA...

CITY           SKY/WX    TMP DP  RH WIND       PRES   REMARKS
K.C. INTL      PTCLDY    69  57  65 SE12      30.09S
K.C. DOWNTOWN  CLEAR     72  54  53 SE9G17    30.09S
LEES SUMMIT    CLEAR     69  52  54 SE8       30.12S
OLATHE - IXD   CLEAR     70  57  63 SE12      30.10S
OLATHE - OJC   CLEAR     69  57  65 SE9       30.09S
LAWRENCE       CLEAR     71  56  58 SE10      30.08R

$$

MOZ001>008-011>017-020>025-030>033-038>040-044>046-053-054-230000-
...NORTHERN AND CENTRAL MISSOURI...

CITY           SKY/WX    TMP DP  RH WIND       PRES   REMARKS
ST. JOSEPH     CLEAR     70  55  59 SE10      30.08S
MOSBY          PTCLDY    70  50  49 SE5       30.10S
WHITEMAN AFB   PTCLDY    65  49  55 SE6       30.13S
CLINTON        MOCLDY    70  52  52 SE6       30.14R
SEDALIA        CLEAR     66  48  52 SE7       30.16R
WARSAW         NOT AVBL
MARSHALL       CLEAR     66  50  55 SE7       30.16R
CHILLICOTHE      N/A     66  47  50 SE6       30.15S
MOBERLY        CLEAR     63  39  42 SE5       30.17S
KIRKSVILLE     CLEAR     57  45  64 SE7       30.17S

$$

MOZ041-047>049-056>058-063>065-088>090-097-230000-
...EASTERN AND SOUTHERN MISSOURI...

CITY           SKY/WX    TMP DP  RH WIND       PRES   REMARKS
ST. LOUIS INTL NOT AVBL
SPIRIT OF STL  CLEAR     60  42  51 SE3       30.20F
COLUMBIA       CLEAR     62  43  49 SE5       30.17R
JEFFERSON CITY CLEAR     64  41  42 E8        30.16S
MEXICO         CLEAR     64  46  52 SE3       30.17F
HANNIBAL       CLEAR     59  37  44 SE3       30.19R
ROLLA          CLEAR     60  40  47 E6        30.16F
LEBANON        CLEAR     64  45  48 SE3       30.17S
OSAGE BEACH    CLEAR     66  43  42 SE3       30.16S
SPRINGFIELD    CLEAR     66  48  52 SE6       30.14S
BRANSON        CLEAR     68  50  52 E7        30.16F
NEVADA         CLEAR     68  55  64 SE5       30.13S HAZE
JOPLIN         PTCLDY    71  56  58 E9        30.12S
WEST PLAINS    CLEAR     63  43  48 SE7       30.18F

$$

IAZ060-094-KSZ022-034>040-054-083-096-NEZ052-066-093-230000-
...KANSAS...SOUTHEAST NEBRASKA AND IOWA...

CITY           SKY/WX    TMP DP  RH WIND       PRES   REMARKS
TOPEKA         PTCLDY    74  60  61 SE10      30.05S
MANHATTAN      PTCLDY    76  55  48 S12       30.02R
EMPORIA        LGT RAIN  72  55  55 S12       30.06S
CHANUTE        CLEAR     73  58  59 S8        30.08F
WICHITA        CLOUDY    75  52  44 S14       30.04S
OMAHA          MOCLDY    72  54  53 SE17      29.99S
LINCOLN        HVY RAIN  65  61  87 W20G31    30.02R FOG
FALLS CITY     LGT RAIN  71  56  58 SE12      30.02S
LAMONI         PTCLDY    63  48  58 SE13      30.11S
DES MOINES     MOCLDY    64  47  53 S12       30.11R

$$




USA.gov is the U.S. government's official web portal to all federal, state and local government web resources and services.